CW2718 Weather Reports


Display with metric or nautical units.
time (UTC)temp
F
wind
direction
speed
MPH
gust
MPH
rain 1hr
in
rain 24hr
in
rain mn
in
humidity
%
barometer
mb
20260906233130 75 265 0.0 0.0 0.00 0.00 0.00 59 1013.7
20260906232130 75 265 0.0 0.0 0.00 0.00 0.00 58 1013.7
20260906231130 76 265 0.0 0.0 0.00 0.00 0.00 58 1013.7
20260906230130 76 265 0.0 0.0 0.00 0.00 0.00 58 1013.6
20260906225130 77 265 0.0 2.0 0.00 0.00 0.00 57 1013.7
20260906224132 77 265 0.0 1.0 0.00 0.00 0.00 58 1013.8
20260906223131 77 265 0.0 1.0 0.00 0.00 0.00 57 1013.8
20260906221130 78 265 1.0 2.0 0.00 0.00 0.00 54 1013.7
20260906220130 78 271 0.0 6.0 0.00 0.00 0.00 55 1013.6
20260906215130 78 279 6.0 6.0 0.00 0.00 0.00 54 1013.5
20260906214130 78 268 0.0 6.0 0.00 0.00 0.00 56 1013.5
20260906213131 79 355 0.0 1.0 0.00 0.00 0.00 56 1013.5
20260906212131 79 355 0.0 3.0 0.00 0.00 0.00 53 1013.4
20260906210130 79 315 1.0 3.0 0.00 0.00 0.00 51 1013.3
20260906205130 79 355 0.0 3.0 0.00 0.00 0.00 53 1013.3
20260906204130 80 285 0.0 3.0 0.00 0.00 0.00 54 1013.3
20260906202130 80 289 0.0 6.0 0.00 0.00 0.00 49 1013.4
20260906201130 80 244 0.0 6.0 0.00 0.00 0.00 50 1013.3
20260906200130 80 247 1.0 4.0 0.00 0.00 0.00 51 1013.2
20260906195130 79 22 0.0 2.0 0.00 0.00 0.00 55 1013.3
20260906193131 79 69 0.0 5.0 0.00 0.00 0.00 56 1013.4
20260906190130 79 47 0.0 7.0 0.00 0.00 0.00 54 1013.6
20260906185130 79 122 1.0 2.0 0.00 0.00 0.00 54 1013.6
20260906184130 79 53 0.0 2.0 0.00 0.00 0.00 54 1013.6
20260906183130 77 51 1.0 2.0 0.00 0.00 0.00 61 1013.7
20260906182130 76 26 1.0 5.0 0.00 0.00 0.00 60 1013.8
20260906181130 77 5 0.0 5.0 0.00 0.00 0.00 60 1013.9
20260906180130 77 5 2.0 6.0 0.00 0.00 0.00 61 1013.9
20260906175130 78 109 0.0 3.0 0.00 0.00 0.00 56 1013.9
20260906174130 78 347 0.0 9.0 0.00 0.00 0.00 55 1013.9
20260906173131 80 101 0.0 6.0 0.00 0.00 0.00 55 1014.0
20260906172130 79 98 0.0 6.0 0.00 0.00 0.00 58 1013.9
20260906171130 78 26 2.0 4.0 0.00 0.00 0.00 60 1014.2
20260906170131 78 5 0.0 4.0 0.00 0.00 0.00 59 1014.2
20260906165130 76 344 1.0 6.0 0.00 0.00 0.00 62 1014.3
20260906164130 75 5 1.0 9.0 0.00 0.00 0.00 65 1014.3
20260906162130 75 360 4.0 6.0 0.00 0.00 0.00 68 1014.3
20260906161130 74 325 3.0 5.0 0.00 0.00 0.00 67 1014.3
20260906160130 74 64 3.0 6.0 0.00 0.00 0.00 69 1014.3
20260906155130 74 360 0.0 6.0 0.00 0.00 0.00 71 1014.4
20260906153130 75 249 0.0 4.0 0.00 0.00 0.00 67 1014.5
20260906152130 75 288 0.0 7.0 0.00 0.00 0.00 67 1014.5
20260906151130 75 335 0.0 7.0 0.00 0.00 0.00 67 1014.3
20260906150130 74 336 0.0 6.0 0.00 0.00 0.00 71 1014.3
20260906145131 75 334 1.0 5.0 0.00 0.00 0.00 68 1014.4
20260906143130 75 111 8.0 8.0 0.00 0.00 0.00 69 1014.3
20260906142130 75 5 0.0 8.0 0.00 0.00 0.00 69 1014.2
20260906140130 75 36 0.0 1.0 0.00 0.00 0.00 69 1014.0
20260906135130 74 59 0.0 3.0 0.00 0.00 0.00 70 1014.0
20260906134129 73 10 0.0 5.0 0.00 0.00 0.00 70 1013.9
20260906133130 72 44 0.0 3.0 0.00 0.00 0.00 72 1013.8
20260906132130 71 21 1.0 6.0 0.00 0.00 0.00 74 1013.9
20260906131130 71 13 1.0 7.0 0.00 0.00 0.00 73 1013.8
20260906125130 70 296 0.0 3.0 0.00 0.00 0.00 77 1013.8
20260906124129 69 344 3.0 8.0 0.00 0.00 0.00 79 1013.7
20260906123130 69 5 3.0 5.0 0.00 0.00 0.00 81 1013.8
20260906121130 66 300 0.0 0.0 0.00 0.00 0.00 89 1013.5
20260906120130 65 303 0.0 0.0 0.00 0.00 0.00 92 1013.4
20260906115129 64 284 0.0 0.0 0.00 0.00 0.00 92 1013.4
20260906114631 63 0 0.0 0.0 0.00 0.00 0.00 84 1010.9
20260906015122 69 282 0.0 0.0 0.00 0.00 0.00 70 1011.0
20260906014122 70 282 0.0 0.0 0.00 0.00 0.00 70 1010.9
20260906013122 70 282 0.0 0.0 0.00 0.00 0.00 69 1010.8
20260906012122 71 282 0.0 0.0 0.00 0.00 0.00 67 1010.7
20260906011122 71 282 0.0 0.0 0.00 0.00 0.00 66 1010.7
20260906010122 71 282 0.0 0.0 0.00 0.00 0.00 65 1010.5
20260906005122 71 282 0.0 0.0 0.00 0.00 0.00 65 1010.2
20260906004121 72 281 0.0 0.0 0.00 0.00 0.00 64 1010.2
20260906003122 72 281 0.0 0.0 0.00 0.00 0.00 63 1010.0
20260906001121 73 281 0.0 0.0 0.00 0.00 0.00 62 1009.8
20260906000121 74 281 0.0 0.0 0.00 0.00 0.00 61 1009.7
20260905235122 74 281 0.0 0.0 0.00 0.00 0.00 60 1009.6
20260905234123 75 281 0.0 0.0 0.00 0.00 0.00 61 1009.3